Location: American Medical Response
(33.3472°N, 96.5511°W)
Time: 14:41:23
(UTC+00:00)

Meteor 1-25 Rocket - Pass Details

Date: 08 December 2021
Orbit: 837 x 890 km, 81.2° (Epoch: 29 January)

Event Time Altitude Azimuth Distance (km) Brightness Sun altitude
Rises 12:31:21 0° 196° (SSW) 3,412 7.4 -9.7°
Reaches altitude 10° 12:33:49 10° 199° (SSW) 2,472 6.7 -9.2°
Maximum altitude 12:39:20 61° 279° (W) 957 4.2 -8.2°
Drops below altitude 10° 12:44:50 10° 0° (N) 2,461 6.4 -7.1°
Sets 12:47:17 0° 4° (N) 3,396 7.1 -6.6°
